Vorticity
13 13 12 11 10 9 9 9 10 10 11 11 11 11 11 11 10 10 9 8 8 7 7 7 6 6 6 6 6 6 6 6 6 7 7 7 7 6 5 4 4 5 7 10 12 12 11 10 8 7 6 5 4 4 4 4 4 5 5 5 5 4 4 4 4 4 3 3 3
13 11 10 9 8 7 7 8 9 10 11 11 12 12 12 12 11 11 10 10 9 9 8 8 8 7 7 7 7 7 7 7 7 8 8 8 7 6 5 4 5 7 10 12 12 11 10 8 7 6 5 4 4 4 4 5 4 5 5 5 5 4 4 4 4 4 4 4 4
10 9 8 7 6 7 7 8 9 10 10 11 11 12 12 12 12 12 12 12 12 11 10 10 10 9 9 9 9 8 8 8 8 8 8 7 6 5 5 6 8 10 12 13 12 10 8 6 6 5 5 4 5 5 5 5 5 5 5 5 5 5 5 5 4 4 4 5 5
8 7 6 6 6 7 7 8 8 10 10 10 10 11 11 12 13 13 14 14 14 13 13 12 12 11 11 10 10 10 10 9 9 8 7 6 6 6 6 8 10 12 13 12 10 8 7 6 5 5 5 4 5 5 5 5 5 5 5 5 5 5 5 5 5 5 5 5 5
8 7 6 5 5 6 6 7 8 8 9 9 9 9 10 11 12 13 14 15 15 15 15 15 14 13 12 12 11 10 10 9 9 8 7 6 6 7 9 11 12 13 12 10 8 7 6 5 5 5 5 5 5 5 5 5 5 5 5 5 5 5 5 6 6 6 6 6 6
7 6 5 5 5 5 5 6 7 6 6 6 6 7 8 9 10 12 14 15 15 15 15 15 14 13 13 12 11 10 10 9 9 8 7 7 9 10 12 13 13 11 10 8 7 6 5 5 5 5 5 5 5 5 5 5 6 6 6 6 6 6 6 6 6 6 7 7 7
7 6 5 5 5 4 4 5 5 4 4 5 5 5 5 6 8 10 12 13 13 14 14 14 14 13 13 12 12 11 11 10 10 10 10 10 11 12 13 12 11 10 8 7 6 5 5 5 5 5 5 5 5 5 6 6 6 6 7 7 6 6 6 7 6 6 7 7 7
8 7 6 5 4 4 4 3 3 3 4 5 5 5 4 5 6 8 9 12 13 14 14 14 14 14 14 13 13 13 12 12 12 12 12 12 12 12 12 11 9 8 7 6 5 5 5 5 5 5 5 5 6 6 6 6 7 7 7 7 7 6 6 6 6 6 7 7 8
9 8 6 5 4 4 3 3 3 4 4 5 5 5 4 4 6 7 9 12 13 13 13 14 14 15 15 14 14 14 13 13 13 13 12 12 12 11 10 9 8 7 6 5 5 5 5 5 5 5 6 6 6 7 7 7 7 8 7 7 7 6 6 5 6 6 7 7 8
9 8 6 5 5 4 3 3 4 5 5 5 4 4 4 4 6 8 10 10 11 12 13 14 14 14 14 15 15 14 14 13 13 12 12 11 10 10 8 7 7 6 5 5 5 5 5 6 6 6 6 7 7 8 8 8 8 8 7 7 7 6 6 5 6 7 7 8 9
8 7 6 5 4 4 4 4 5 5 5 4 4 3 4 4 6 8 9 10 11 12 12 12 12 13 13 14 13 13 13 12 12 11 10 10 9 8 8 7 6 6 6 5 6 6 6 6 7 7 8 8 8 9 9 8 8 7 7 6 6 6 6 6 7 7 9 10 11
8 7 6 6 5 4 4 4 4 4 4 4 4 4 4 5 7 8 10 11 12 11 11 10 10 11 11 12 12 12 12 11 11 10 10 9 8 8 7 7 6 6 6 6 6 7 7 7 8 8 9 9 9 9 9 8 7 7 7 6 6 6 7 7 8 9 11 12 14
7 6 6 6 5 5 5 4 4 4 4 4 4 4 5 6 7 9 10 11 11 10 10 9 9 9 10 10 11 11 11 10 10 10 9 9 8 8 7 7 6 6 6 7 7 7 8 8 9 9 9 9 9 8 8 7 7 7 7 6 6 7 7 8 10 11 13 15 17
6 6 6 5 5 5 5 4 5 5 5 5 5 5 6 6 8 10 11 11 10 10 9 9 9 9 9 10 10 10 10 10 10 9 9 8 8 7 7 7 7 7 7 7 8 8 9 9 9 9 9 9 8 7 7 6 6 6 7 7 7 7 8 10 12 14 16 18 20
6 6 5 5 5 5 5 5 6 6 6 6 6 6 7 7 9 10 10 11 10 10 9 8 8 8 9 9 9 9 9 9 9 9 8 8 7 7 7 7 7 7 8 8 9 9 9 9 9 9 8 8 7 7 6 6 6 6 7 7 8 9 10 12 14 17 18 20 20
6 6 5 6 6 6 6 7 7 7 7 7 7 7 7 8 9 10 10 10 10 9 9 8 8 8 8 9 9 9 9 9 8 8 8 7 7 7 7 7 8 8 8 9 9 9 9 8 8 8 7 7 7 6 6 6 7 7 7 8 9 11 13 15 17 19 20 20 20
6 6 6 7 7 7 7 8 8 8 8 7 7 7 7 7 8 9 10 10 10 9 9 8 8 8 8 8 9 8 8 8 8 7 7 7 7 7 7 8 8 8 8 8 8 8 8 7 7 7 7 7 7 7 7 7 7 8 9 10 11 13 15 17 19 19 20 20 20
7 7 8 8 9 9 9 9 9 8 8 7 7 6 6 7 8 9 9 10 9 9 9 8 8 8 8 8 8 8 8 7 7 7 7 7 7 7 7 7 7 7 7 7 7 7 7 7 7 6 6 7 7 7 7 8 8 9 10 11 13 15 17 18 19 20 19 19 18
8 9 9 10 10 10 9 9 9 8 8 7 6 6 6 6 7 8 9 9 10 9 9 8 8 9 8 8 8 8 7 7 7 7 7 7 7 7 7 7 7 6 6 6 6 6 6 7 6 7 7 7 7 8 8 9 9 10 11 13 15 16 18 19 19 19 19 17 16
9 10 11 11 11 10 10 9 8 8 7 6 5 5 5 6 7 8 8 9 9 9 9 9 9 9 8 8 8 7 7 7 7 7 7 6 6 6 6 5 5 5 5 6 6 6 6 6 7 7 7 8 8 8 9 9 10 11 13 14 16 17 18 19 19 18 17 15 14
10 11 11 11 10 10 9 8 8 7 6 5 5 4 4 5 6 7 8 8 9 9 10 9 9 9 8 8 7 7 7 7 6 6 6 5 5 5 4 4 5 5 5 5 6 6 6 6 7 7 8 8 9 9 10 10 11 12 14 15 17 18 18 18 17 16 15 13 12
11 11 11 11 10 9 8 7 7 6 6 5 4 4 4 5 6 7 8 8 9 10 10 10 9 9 8 8 7 7 6 6 5 5 4 4 4 3 4 4 4 5 5 5 6 6 6 7 7 8 8 9 9 10 11 11 12 13 14 16 17 17 17 17 16 15 13 12 12
10 11 11 10 9 8 8 7 6 6 5 4 4 4 4 5 6 7 8 9 10 10 10 10 9 9 8 7 7 6 5 5 4 4 3 3 3 3 4 4 5 5 6 6 6 6 7 7 8 9 9 10 10 11 12 13 13 14 14 15 16 16 16 16 15 14 13 12 11
10 11 11 10 9 8 7 7 6 6 5 4 3 3 4 5 6 7 9 10 11 11 11 10 9 8 7 7 6 5 4 4 3 3 3 3 3 4 4 5 5 6 6 6 7 7 7 8 9 9 10 11 11 12 13 13 14 14 15 15 15 15 15 15 14 13 12 12 12
10 11 11 11 10 9 7 7 6 6 5 4 3 4 4 5 7 9 10 11 12 11 11 10 9 8 7 6 5 4 4 3 3 3 3 3 4 4 5 6 6 6 7 7 7 8 8 9 10 11 11 12 12 13 13 14 14 15 15 15 14 14 13 13 13 13 12 12 14
11 12 12 12 11 9 8 7 6 5 4 3 4 4 5 7 9 10 12 12 12 12 11 10 9 8 7 6 5 5 4 4 4 4 4 5 5 5 6 6 7 7 7 8 8 8 9 10 11 12 13 13 13 13 13 13 14 15 14 14 14 13 12 12 12 12 13 14 16
12 13 14 13 13 11 9 8 7 5 4 4 4 5 7 9 10 12 12 13 12 12 11 11 10 9 8 7 6 5 5 5 5 5 5 6 6 6 6 7 7 8 8 8 9 9 10 11 12 14 15 15 14 13 12 12 13 14 14 13 13 12 12 11 12 13 15 17 19
12 13 14 15 14 12 10 8 7 6 5 5 6 7 8 10 11 12 12 12 12 11 11 11 10 9 8 7 7 6 6 5 5 5 6 6 6 7 7 8 8 8 9 9 10 10 11 12 14 15 16 16 14 13 12 11 12 13 13 12 12 12 12 12 13 15 18 20 22
12 13 15 16 15 13 10 10 8 7 6 6 6 7 8 10 10 10 10 10 11 11 11 10 10 9 8 8 7 6 6 6 6 6 6 6 6 7 8 8 9 9 10 10 10 11 12 13 15 16 17 16 14 12 11 12 12 11 11 11 11 11 12 13 15 18 20 22 22
12 13 15 16 15 13 12 10 8 7 6 6 6 7 7 7 8 8 8 8 9 9 9 9 8 8 7 7 6 6 5 5 5 5 6 6 7 8 8 9 10 10 10 11 11 12 13 15 16 17 17 16 13 12 11 11 11 10 10 10 11 12 13 15 18 20 21 22 20
12 13 15 15 15 14 12 9 8 7 6 6 6 6 5 5 5 5 5 5 6 6 7 7 7 6 6 5 5 5 5 5 5 5 6 7 8 9 9 10 10 10 11 11 12 13 14 16 17 17 16 15 13 11 11 10 10 9 9 10 11 13 15 17 20 21 21 20 17
12 13 14 14 14 13 11 8 7 6 6 5 5 4 4 3 2 2 2 2 3 4 5 6 6 6 5 5 5 5 5 5 5 6 7 8 9 9 10 10 11 11 11 12 13 14 15 17 17 17 16 14 12 11 10 9 9 9 9 11 13 15 17 19 20 20 19 17 14
11 12 13 13 12 11 9 8 6 5 5 4 4 4 3 2 1 0 0 0 1 2 3 4 4 4 5 5 5 5 5 5 6 7 8 9 10 10 10 11 11 12 12 12 13 15 16 17 17 16 15 13 11 10 9 8 8 9 10 12 14 17 19 20 20 19 17 14 11
11 11 11 10 9 8 7 6 5 4 4 3 4 3 2 1 1 0 -0 -0 0 1 2 2 3 4 4 4 5 5 6 6 7 8 9 10 10 11 11 11 12 12 12 13 14 16 17 18 17 16 14 12 10 9 8 7 8 10 12 14 16 18 20 20 19 17 14 11 9
10 10 10 9 7 6 5 4 4 3 3 3 3 3 2 2 1 0 0 0 0 1 1 2 2 3 4 4 5 6 6 7 8 9 10 10 11 11 11 11 12 12 13 14 15 17 18 18 17 15 13 10 8 7 7 7 9 11 13 16 18 19 19 19 16 14 11 8 6
11 11 9 8 7 6 5 4 4 3 3 3 3 3 3 3 2 2 1 1 1 1 1 1 2 3 3 4 6 6 7 8 9 10 10 11 11 11 11 11 11 12 13 15 17 18 19 19 17 14 11 9 7 7 7 8 10 13 15 17 18 19 18 16 13 11 8 6 5
13 11 10 9 8 7 6 6 6 5 5 5 4 4 5 5 4 4 3 2 1 1 1 2 2 3 4 6 7 7 8 9 10 10 11 12 12 12 11 11 11 12 14 16 18 19 19 18 15 12 9 7 6 7 8 10 12 14 16 18 18 17 15 13 10 8 6 5 4
12 11 10 9 8 8 7 7 7 7 7 7 7 7 7 7 6 5 4 3 2 2 2 3 4 5 6 7 8 8 9 10 11 11 12 13 13 12 11 10 11 13 15 18 19 20 19 16 13 11 8 6 6 7 8 11 13 15 16 17 16 15 13 10 8 6 5 4 4
11 10 9 9 8 8 8 8 8 8 8 8 8 8 8 8 7 6 5 4 4 4 4 5 6 8 8 9 9 9 10 11 12 12 12 13 12 11 11 10 12 14 17 20 20 20 17 14 11 9 7 6 7 8 9 12 14 15 16 16 14 13 10 8 6 5 4 4 5
9 8 8 8 8 8 8 8 8 8 8 8 8 8 9 8 7 6 5 5 5 6 6 8 9 10 11 10 10 10 11 11 12 13 13 13 12 11 11 11 13 15 18 21 20 19 16 12 10 8 7 7 7 9 10 12 14 15 15 14 12 10 8 6 5 4 3 4 5
8 7 7 7 7 7 7 8 8 8 8 8 8 8 8 8 7 6 6 6 8 9 10 11 12 13 12 12 11 11 11 12 13 13 13 12 11 11 11 12 14 17 20 21 20 17 14 11 9 8 7 7 8 10 11 13 14 14 13 12 10 8 6 5 4 3 4 4 6
Height
3095 3095 3094 3094 3094 3094 3093 3092 3092 3091 3091 3090 3089 3089 3088 3088 3087 3086 3085 3085 3084 3083 3082 3081 3080 3079 3078 3077 3076 3074 3074 3072 3071 3070 3069 3068 3067 3066 3065 3063 3062 3061 3059 3058 3056 3055 3054 3052 3050 3049 3048 3046 3045 3044 3043 3042 3040 3038 3037 3035 3034 3032 3030 3029 3027 3026 3024 3022 3020
3094 3093 3093 3092 3092 3092 3091 3090 3090 3089 3089 3088 3087 3087 3086 3085 3084 3084 3083 3082 3081 3080 3079 3079 3078 3077 3076 3074 3073 3072 3071 3070 3069 3068 3067 3066 3064 3063 3062 3061 3059 3058 3057 3055 3054 3052 3051 3049 3048 3046 3045 3044 3042 3041 3040 3039 3037 3035 3033 3032 3030 3028 3027 3025 3023 3022 3020 3018 3016
3092 3091 3091 3090 3090 3089 3089 3088 3088 3087 3086 3085 3085 3084 3084 3083 3083 3082 3081 3080 3079 3078 3077 3076 3075 3074 3073 3072 3071 3070 3069 3068 3067 3065 3064 3063 3062 3061 3060 3058 3057 3056 3054 3053 3051 3050 3048 3047 3045 3043 3042 3041 3039 3038 3037 3035 3034 3032 3030 3028 3027 3025 3023 3021 3020 3018 3016 3014 3012
3089 3089 3088 3088 3087 3087 3086 3086 3085 3085 3084 3083 3083 3082 3081 3081 3080 3079 3079 3077 3076 3075 3074 3074 3072 3071 3070 3069 3068 3067 3066 3065 3064 3063 3062 3061 3060 3059 3057 3056 3054 3053 3052 3050 3049 3047 3045 3044 3042 3040 3039 3038 3037 3035 3034 3032 3031 3029 3027 3025 3024 3022 3020 3018 3016 3015 3013 3011 3009
3087 3087 3086 3085 3085 3084 3084 3084 3083 3082 3082 3081 3080 3080 3079 3078 3078 3077 3076 3075 3074 3073 3072 3071 3069 3069 3068 3067 3066 3065 3064 3063 3062 3061 3059 3059 3057 3056 3055 3054 3052 3051 3049 3048 3046 3045 3043 3041 3039 3038 3037 3035 3034 3033 3031 3029 3028 3026 3024 3022 3021 3019 3017 3015 3013 3011 3009 3007 3005
3085 3084 3084 3083 3083 3082 3081 3081 3080 3080 3079 3079 3078 3077 3077 3076 3075 3074 3073 3072 3071 3070 3069 3068 3067 3066 3065 3064 3063 3062 3061 3060 3059 3058 3057 3056 3055 3054 3052 3051 3049 3048 3047 3045 3044 3042 3040 3039 3037 3035 3034 3033 3031 3029 3028 3026 3024 3022 3021 3019 3018 3016 3014 3012 3009 3008 3006 3004 3002
3083 3082 3081 3081 3080 3079 3079 3079 3078 3077 3077 3076 3076 3075 3074 3073 3072 3071 3070 3069 3068 3067 3066 3065 3064 3063 3062 3061 3060 3059 3059 3058 3056 3055 3054 3053 3052 3051 3049 3048 3047 3045 3044 3043 3041 3039 3038 3036 3034 3033 3031 3030 3029 3027 3025 3023 3021 3019 3017 3016 3014 3012 3010 3008 3006 3004 3002 3000 2998
3080 3080 3079 3079 3078 3077 3077 3076 3075 3075 3074 3074 3073 3072 3071 3070 3070 3069 3068 3066 3065 3064 3063 3062 3061 3060 3059 3059 3058 3057 3056 3055 3054 3053 3051 3050 3049 3048 3047 3045 3044 3043 3041 3040 3038 3037 3035 3033 3032 3030 3029 3027 3025 3024 3022 3020 3018 3016 3014 3012 3011 3009 3007 3005 3003 3000 2998 2996 2994
3078 3077 3077 3076 3075 3075 3074 3074 3073 3072 3071 3071 3070 3069 3069 3068 3067 3066 3065 3064 3063 3062 3061 3060 3059 3058 3057 3056 3055 3054 3053 3052 3050 3049 3048 3047 3046 3045 3044 3043 3041 3040 3039 3037 3035 3034 3032 3030 3029 3028 3026 3024 3023 3021 3019 3017 3015 3013 3010 3009 3007 3005 3003 3001 2999 2996 2994 2991 2989
3075 3075 3074 3074 3073 3072 3072 3071 3070 3069 3069 3068 3067 3067 3066 3065 3064 3063 3062 3061 3060 3059 3058 3057 3056 3055 3054 3053 3052 3051 3049 3049 3048 3046 3045 3044 3043 3042 3041 3039 3039 3037 3036 3034 3033 3031 3029 3028 3026 3024 3023 3021 3019 3017 3015 3013 3011 3009 3006 3004 3003 3000 2999 2996 2994 2992 2989 2986 2984
3073 3073 3072 3072 3071 3070 3069 3069 3068 3067 3066 3065 3065 3064 3063 3062 3061 3060 3059 3059 3058 3056 3055 3054 3053 3052 3051 3050 3049 3048 3047 3045 3044 3044 3042 3041 3040 3039 3038 3037 3035 3034 3033 3031 3029 3028 3026 3024 3023 3021 3019 3017 3015 3013 3011 3009 3006 3004 3002 2999 2998 2995 2993 2991 2989 2986 2984 2981 2979
3071 3070 3070 3069 3069 3068 3067 3066 3065 3065 3064 3063 3062 3061 3060 3059 3059 3058 3057 3056 3055 3054 3053 3051 3050 3049 3048 3047 3046 3045 3044 3043 3041 3040 3039 3038 3037 3036 3035 3034 3032 3031 3029 3028 3026 3024 3023 3021 3019 3017 3015 3013 3011 3009 3006 3004 3001 2999 2997 2994 2993 2990 2988 2986 2984 2982 2979 2977 2975
3069 3068 3068 3067 3066 3066 3065 3064 3063 3062 3061 3061 3060 3059 3058 3057 3056 3055 3054 3053 3052 3051 3050 3049 3048 3047 3045 3044 3043 3042 3041 3040 3039 3038 3036 3035 3034 3033 3032 3030 3029 3028 3026 3024 3023 3021 3019 3017 3015 3013 3010 3008 3006 3004 3001 2999 2996 2994 2992 2990 2988 2986 2984 2982 2979 2977 2975 2973 2970
3066 3066 3065 3065 3064 3063 3062 3062 3061 3060 3059 3058 3057 3056 3055 3054 3053 3052 3051 3050 3049 3048 3047 3046 3045 3044 3043 3041 3040 3039 3038 3037 3035 3034 3034 3032 3031 3030 3029 3027 3026 3024 3023 3020 3019 3017 3015 3013 3010 3008 3005 3003 3001 2999 2997 2994 2992 2989 2987 2985 2983 2981 2979 2977 2975 2973 2971 2969 2966
3064 3063 3063 3062 3062 3061 3060 3059 3058 3057 3056 3055 3055 3054 3053 3052 3051 3049 3049 3048 3046 3045 3044 3043 3042 3041 3039 3038 3037 3036 3035 3034 3033 3031 3030 3029 3028 3027 3025 3024 3022 3020 3019 3017 3014 3013 3010 3008 3006 3003 3001 2998 2996 2994 2992 2990 2988 2986 2984 2981 2979 2977 2975 2973 2971 2969 2966 2964 2962
3061 3061 3060 3059 3059 3058 3057 3056 3055 3055 3054 3053 3052 3051 3050 3049 3048 3047 3046 3045 3044 3043 3041 3040 3039 3038 3037 3035 3034 3033 3032 3030 3029 3028 3027 3026 3024 3023 3021 3020 3018 3016 3014 3012 3010 3008 3006 3004 3001 2999 2996 2994 2992 2990 2988 2986 2984 2982 2980 2978 2975 2973 2971 2969 2966 2964 2962 2960 2958
3059 3058 3057 3057 3056 3055 3054 3054 3053 3052 3051 3050 3049 3049 3048 3046 3045 3044 3043 3042 3041 3040 3039 3038 3036 3035 3034 3032 3031 3030 3029 3027 3026 3025 3024 3022 3021 3019 3018 3016 3014 3013 3010 3009 3006 3004 3002 3000 2997 2995 2993 2990 2989 2986 2984 2982 2980 2978 2976 2974 2971 2969 2967 2964 2962 2960 2958 2955 2954
3056 3055 3055 3054 3053 3052 3052 3051 3050 3049 3048 3048 3047 3046 3045 3044 3043 3041 3040 3039 3038 3037 3036 3034 3033 3032 3031 3029 3028 3027 3025 3024 3023 3021 3020 3019 3017 3016 3014 3013 3011 3009 3007 3005 3003 3000 2999 2996 2994 2991 2989 2987 2985 2983 2981 2979 2976 2974 2972 2969 2967 2964 2962 2960 2958 2956 2954 2952 2950
3053 3053 3052 3051 3050 3050 3049 3048 3047 3046 3045 3045 3044 3043 3042 3041 3039 3039 3037 3036 3035 3034 3033 3031 3030 3029 3028 3026 3025 3024 3022 3021 3019 3018 3017 3016 3014 3013 3011 3009 3007 3005 3003 3001 2999 2997 2994 2992 2990 2988 2986 2984 2981 2979 2977 2975 2972 2970 2968 2965 2963 2960 2958 2956 2954 2952 2950 2948 2946
3050 3050 3049 3049 3048 3047 3046 3045 3044 3044 3043 3042 3041 3040 3039 3038 3036 3035 3034 3033 3032 3031 3029 3028 3027 3026 3024 3023 3022 3020 3019 3018 3016 3015 3014 3012 3011 3009 3007 3005 3003 3001 2999 2997 2995 2993 2991 2989 2986 2984 2982 2980 2978 2975 2973 2971 2968 2965 2963 2961 2958 2956 2954 2952 2950 2948 2946 2944 2943
3048 3047 3046 3046 3045 3044 3043 3042 3042 3041 3040 3039 3038 3037 3036 3034 3034 3032 3031 3030 3029 3028 3026 3025 3024 3023 3021 3020 3019 3017 3016 3015 3014 3012 3011 3009 3008 3006 3004 3002 3000 2998 2996 2994 2992 2989 2987 2985 2983 2981 2979 2976 2974 2971 2969 2967 2964 2961 2959 2956 2954 2952 2950 2948 2946 2944 2943 2941 2939
3045 3044 3044 3043 3042 3041 3040 3039 3039 3038 3037 3036 3035 3034 3033 3032 3030 3029 3028 3027 3026 3024 3023 3022 3021 3019 3018 3017 3016 3014 3013 3012 3010 3009 3008 3006 3004 3002 3000 2999 2996 2994 2992 2990 2988 2986 2984 2981 2979 2977 2975 2972 2969 2967 2965 2962 2959 2957 2954 2952 2950 2948 2946 2944 2943 2941 2939 2937 2936
3042 3042 3041 3040 3039 3039 3038 3037 3036 3035 3034 3033 3032 3031 3030 3029 3028 3026 3025 3024 3023 3021 3020 3019 3018 3016 3015 3014 3013 3011 3010 3009 3008 3006 3004 3003 3001 2999 2997 2995 2993 2991 2989 2987 2984 2982 2980 2977 2975 2973 2970 2968 2965 2963 2960 2958 2955 2952 2950 2948 2946 2944 2943 2941 2939 2937 2935 2934 2932
3040 3039 3038 3038 3037 3036 3035 3034 3033 3032 3031 3030 3029 3028 3027 3026 3025 3024 3022 3021 3020 3019 3017 3016 3014 3013 3012 3011 3009 3008 3007 3006 3004 3003 3001 2999 2998 2996 2994 2991 2989 2987 2985 2983 2981 2979 2976 2973 2971 2968 2966 2964 2961 2958 2956 2953 2950 2948 2945 2943 2942 2940 2939 2937 2936 2934 2932 2930 2928
3037 3036 3036 3035 3034 3033 3032 3031 3030 3029 3028 3027 3026 3025 3024 3023 3022 3021 3019 3018 3017 3015 3014 3013 3011 3010 3009 3008 3006 3005 3004 3003 3001 2999 2998 2996 2994 2992 2990 2988 2986 2984 2982 2979 2978 2975 2973 2970 2967 2964 2962 2959 2956 2954 2951 2949 2946 2944 2941 2939 2938 2936 2935 2934 2932 2931 2929 2927 2925
3034 3034 3033 3032 3032 3031 3030 3029 3028 3027 3026 3024 3024 3023 3021 3020 3019 3018 3016 3015 3014 3012 3011 3009 3008 3007 3006 3005 3004 3002 3001 2999 2998 2996 2994 2992 2990 2989 2987 2985 2983 2980 2979 2976 2974 2972 2969 2967 2964 2961 2958 2955 2952 2949 2947 2944 2942 2940 2938 2936 2934 2933 2931 2930 2929 2927 2925 2923 2921
3032 3031 3030 3029 3029 3028 3027 3026 3025 3024 3023 3022 3021 3020 3019 3017 3016 3015 3013 3012 3010 3009 3008 3007 3005 3004 3003 3002 3000 2999 2997 2996 2994 2992 2990 2989 2987 2985 2983 2981 2979 2977 2975 2973 2971 2968 2966 2964 2961 2958 2954 2951 2948 2945 2943 2940 2938 2936 2935 2933 2931 2929 2928 2926 2925 2923 2922 2920 2918
3029 3028 3027 3026 3026 3025 3024 3023 3022 3021 3020 3019 3018 3017 3016 3014 3013 3012 3010 3009 3008 3006 3005 3004 3002 3001 3000 2999 2997 2995 2994 2992 2990 2989 2987 2985 2983 2982 2980 2978 2976 2974 2972 2970 2967 2965 2962 2960 2957 2954 2951 2948 2944 2941 2939 2936 2934 2933 2931 2930 2928 2926 2924 2923 2921 2919 2918 2916 2914
3026 3025 3024 3023 3022 3022 3021 3020 3019 3018 3017 3016 3015 3014 3013 3011 3010 3009 3007 3006 3004 3003 3002 3000 2999 2998 2997 2995 2994 2992 2990 2989 2987 2985 2983 2982 2980 2978 2977 2975 2973 2971 2969 2966 2964 2961 2959 2956 2954 2951 2948 2944 2940 2937 2935 2933 2931 2929 2928 2926 2925 2923 2921 2919 2917 2916 2914 2912 2910
3023 3022 3021 3020 3019 3018 3017 3017 3016 3015 3014 3013 3012 3011 3009 3008 3007 3006 3004 3003 3001 3000 2999 2998 2996 2995 2993 2992 2990 2989 2987 2985 2984 2982 2980 2979 2977 2975 2973 2971 2969 2967 2965 2963 2960 2958 2955 2953 2950 2947 2944 2941 2937 2934 2931 2929 2928 2926 2924 2923 2922 2920 2918 2916 2914 2912 2910 2909 2907
3019 3019 3018 3017 3016 3015 3014 3013 3012 3012 3011 3010 3009 3008 3006 3005 3004 3003 3001 3000 2999 2997 2996 2994 2993 2991 2990 2989 2987 2985 2984 2982 2980 2979 2977 2975 2974 2972 2970 2968 2966 2964 2962 2959 2957 2954 2951 2949 2946 2943 2940 2937 2934 2931 2929 2926 2925 2923 2921 2920 2918 2916 2914 2913 2911 2909 2907 2906 2904
3016 3015 3014 3014 3013 3012 3011 3010 3009 3008 3007 3006 3005 3004 3003 3002 3001 2999 2998 2997 2995 2994 2993 2991 2989 2988 2986 2985 2984 2982 2980 2979 2977 2975 2974 2972 2970 2968 2966 2964 2962 2960 2958 2955 2953 2950 2948 2945 2942 2939 2936 2934 2931 2928 2926 2924 2922 2920 2918 2917 2915 2913 2911 2909 2907 2906 2904 2903 2901
3013 3012 3011 3010 3010 3009 3008 3007 3006 3005 3004 3003 3002 3001 3000 2999 2998 2996 2995 2994 2992 2991 2989 2988 2986 2984 2983 2982 2980 2979 2977 2975 2974 2972 2970 2968 2966 2964 2963 2961 2959 2957 2954 2952 2949 2947 2944 2941 2939 2936 2933 2930 2927 2925 2923 2921 2919 2917 2915 2914 2912 2910 2908 2906 2904 2903 2901 2900 2898
3010 3009 3008 3008 3007 3006 3004 3004 3003 3002 3001 3000 2999 2998 2997 2995 2994 2993 2992 2990 2989 2987 2986 2984 2983 2981 2980 2978 2977 2975 2974 2972 2970 2969 2967 2965 2963 2961 2959 2957 2955 2953 2951 2948 2945 2943 2940 2938 2935 2932 2929 2927 2924 2922 2920 2918 2916 2914 2912 2910 2909 2907 2905 2904 2902 2900 2899 2897 2895
3007 3006 3005 3004 3004 3003 3002 3000 2999 2999 2998 2997 2995 2994 2993 2992 2991 2990 2988 2987 2985 2984 2983 2981 2979 2978 2976 2975 2974 2972 2970 2969 2967 2965 2963 2961 2959 2957 2955 2953 2952 2950 2948 2945 2942 2939 2937 2934 2931 2929 2926 2924 2921 2919 2917 2915 2913 2911 2909 2907 2905 2904 2902 2901 2899 2897 2896 2894 2893
3004 3003 3002 3001 3000 2999 2999 2998 2996 2995 2994 2994 2992 2991 2990 2989 2988 2986 2985 2984 2982 2980 2979 2978 2976 2974 2973 2971 2970 2968 2967 2965 2963 2961 2959 2958 2956 2954 2951 2950 2948 2947 2944 2942 2939 2936 2934 2931 2928 2926 2923 2920 2918 2916 2914 2912 2910 2908 2906 2904 2902 2901 2899 2898 2896 2894 2893 2892 2890
3001 3000 2999 2998 2997 2996 2995 2994 2993 2992 2991 2990 2989 2988 2987 2985 2984 2983 2981 2980 2979 2977 2975 2974 2973 2971 2969 2968 2966 2965 2963 2962 2960 2958 2956 2954 2952 2950 2948 2946 2945 2943 2941 2939 2935 2933 2930 2928 2925 2923 2920 2917 2915 2913 2911 2909 2907 2905 2903 2901 2899 2898 2896 2895 2893 2892 2890 2889 2887
2998 2997 2996 2995 2994 2993 2992 2991 2990 2989 2988 2987 2985 2984 2983 2982 2981 2979 2978 2976 2975 2973 2972 2970 2969 2968 2966 2965 2963 2962 2960 2958 2956 2954 2952 2950 2948 2946 2944 2943 2941 2940 2938 2935 2932 2929 2927 2924 2922 2919 2917 2914 2912 2910 2908 2906 2904 2902 2900 2898 2896 2894 2893 2892 2890 2888 2887 2886 2884
2994 2993 2992 2991 2990 2989 2989 2988 2987 2985 2984 2983 2982 2981 2979 2978 2977 2975 2974 2973 2971 2970 2968 2967 2965 2964 2963 2961 2960 2958 2957 2955 2953 2951 2949 2947 2945 2943 2941 2939 2938 2936 2934 2932 2929 2926 2924 2922 2919 2917 2914 2912 2909 2907 2905 2903 2900 2899 2897 2895 2893 2891 2890 2889 2887 2885 2883 2882 2881
2991 2990 2989 2988 2987 2986 2985 2984 2983 2982 2981 2980 2978 2977 2976 2974 2973 2972 2970 2969 2968 2966 2965 2964 2962 2961 2959 2958 2956 2955 2953 2951 2950 2948 2946 2943 2941 2939 2938 2936 2934 2933 2931 2929 2926 2924 2921 2919 2916 2914 2912 2909 2907 2905 2902 2900 2898 2895 2894 2892 2890 2888 2886 2885 2884 2882 2880 2878 2877
2988 2987 2985 2984 2984 2983 2982 2980 2979 2978 2977 2976 2975 2974 2972 2971 2969 2968 2967 2965 2964 2963 2961 2960 2958 2957 2956 2954 2953 2951 2949 2948 2946 2944 2942 2940 2938 2936 2934 2933 2931 2929 2928 2926 2924 2921 2918 2916 2914 2912 2909 2907 2904 2902 2900 2897 2895 2893 2891 2889 2887 2885 2884 2882 2880 2879 2877 2875 2874